Year,Month,Day,Hour,Minute,Value (Times are PST for temperature in C)
2012,08,02,00,00,14.30
2012,08,02,00,01,14.30
2012,08,02,00,02,14.30
2012,08,02,00,03,14.30
2012,08,02,00,04,14.30
2012,08,02,00,05,14.30
2012,08,02,00,06,14.30
2012,08,02,00,07,14.30
2012,08,02,00,08,14.30
2012,08,02,00,09,14.30
2012,08,02,00,10,14.30
2012,08,02,00,11,14.30
2012,08,02,00,12,14.30
2012,08,02,00,13,14.30
2012,08,02,00,14,14.30
2012,08,02,00,15,14.30
2012,08,02,00,16,14.30
2012,08,02,00,17,14.30
2012,08,02,00,18,14.30
2012,08,02,00,19,14.30
2012,08,02,00,20,14.30
2012,08,02,00,21,14.30
2012,08,02,00,22,14.30
2012,08,02,00,23,14.30
2012,08,02,00,24,14.30
2012,08,02,00,25,14.30
2012,08,02,00,26,14.30
2012,08,02,00,27,14.30
2012,08,02,00,28,14.30
2012,08,02,00,29,14.30
2012,08,02,00,30,14.30
2012,08,02,00,31,14.30
2012,08,02,00,32,14.30
2012,08,02,00,33,14.40
2012,08,02,00,34,14.40
2012,08,02,00,35,14.40
2012,08,02,00,36,14.40
2012,08,02,00,37,14.40
2012,08,02,00,38,14.40
2012,08,02,00,39,14.40
2012,08,02,00,40,14.40
2012,08,02,00,41,14.40
2012,08,02,00,42,14.40
2012,08,02,00,43,14.40
2012,08,02,00,44,14.40
2012,08,02,00,45,14.40
2012,08,02,00,46,14.40
2012,08,02,00,47,14.40
2012,08,02,00,48,14.40
2012,08,02,00,49,14.40
2012,08,02,00,50,14.40
2012,08,02,00,51,14.40
2012,08,02,00,52,14.40
2012,08,02,00,53,14.40
2012,08,02,00,54,14.40
2012,08,02,00,55,14.40
2012,08,02,00,56,14.40
2012,08,02,00,57,14.40
2012,08,02,00,58,14.40
2012,08,02,00,59,14.40
2012,08,02,01,00,14.40
2012,08,02,01,01,14.40
2012,08,02,01,02,14.40
2012,08,02,01,03,14.50
2012,08,02,01,04,14.50
2012,08,02,01,05,14.50
2012,08,02,01,06,14.50
2012,08,02,01,07,14.40
2012,08,02,01,08,14.40
2012,08,02,01,09,14.40
2012,08,02,01,10,14.40
2012,08,02,01,11,14.30
2012,08,02,01,12,14.30
2012,08,02,01,13,14.30
2012,08,02,01,14,14.30
2012,08,02,01,15,14.30
2012,08,02,01,16,14.30
2012,08,02,01,17,14.20
2012,08,02,01,18,14.20
2012,08,02,01,19,14.20
2012,08,02,01,20,14.20
2012,08,02,01,21,14.20
2012,08,02,01,22,14.20
2012,08,02,01,23,14.20
2012,08,02,01,24,14.20
2012,08,02,01,25,14.20
2012,08,02,01,26,14.30
2012,08,02,01,27,14.30
2012,08,02,01,28,14.30
2012,08,02,01,29,14.30
2012,08,02,01,30,14.30
2012,08,02,01,31,14.30
2012,08,02,01,32,14.30
2012,08,02,01,33,14.30
2012,08,02,01,34,14.30
2012,08,02,01,35,14.30
2012,08,02,01,36,14.30
2012,08,02,01,37,14.30
2012,08,02,01,38,14.30
2012,08,02,01,39,14.30
2012,08,02,01,40,14.30
2012,08,02,01,41,14.30
2012,08,02,01,42,14.30
2012,08,02,01,43,14.30
2012,08,02,01,44,14.30
2012,08,02,01,45,14.30
2012,08,02,01,46,14.30
2012,08,02,01,47,14.30
2012,08,02,01,48,14.30
2012,08,02,01,49,14.30
2012,08,02,01,50,14.30
2012,08,02,01,51,14.30
2012,08,02,01,52,14.30
2012,08,02,01,53,14.40
2012,08,02,01,54,14.40
2012,08,02,01,55,14.40
2012,08,02,01,56,14.40
2012,08,02,01,57,14.40
2012,08,02,01,58,14.40
2012,08,02,01,59,14.40
2012,08,02,02,00,14.40
2012,08,02,02,01,14.40
2012,08,02,02,02,14.40
2012,08,02,02,03,14.40
2012,08,02,02,04,14.40
2012,08,02,02,05,14.30
2012,08,02,02,06,14.30
2012,08,02,02,07,14.30
2012,08,02,02,08,14.30
2012,08,02,02,09,14.30
2012,08,02,02,10,14.30
2012,08,02,02,11,14.30
2012,08,02,02,12,14.30
2012,08,02,02,13,14.30
2012,08,02,02,14,14.30
2012,08,02,02,15,14.30
2012,08,02,02,16,14.30
2012,08,02,02,17,14.30
2012,08,02,02,18,14.30
2012,08,02,02,19,14.30
2012,08,02,02,20,14.30
2012,08,02,02,21,14.30
2012,08,02,02,22,14.30
2012,08,02,02,23,14.30
2012,08,02,02,24,14.30
2012,08,02,02,25,14.20
2012,08,02,02,26,14.20
2012,08,02,02,27,14.20
2012,08,02,02,28,14.20
2012,08,02,02,29,14.20
2012,08,02,02,30,14.20
2012,08,02,02,31,14.20
2012,08,02,02,32,14.20
2012,08,02,02,33,14.20
2012,08,02,02,34,14.20
2012,08,02,02,35,14.20
2012,08,02,02,36,14.20
2012,08,02,02,37,14.20
2012,08,02,02,38,14.20
2012,08,02,02,39,14.10
2012,08,02,02,40,14.10
2012,08,02,02,41,14.10
2012,08,02,02,42,14.10
2012,08,02,02,43,14.10
2012,08,02,02,44,14.10
2012,08,02,02,45,14.10
2012,08,02,02,46,14.10
2012,08,02,02,47,14.10
2012,08,02,02,48,14.00
2012,08,02,02,49,14.00
2012,08,02,02,50,14.00
2012,08,02,02,51,14.00
2012,08,02,02,52,14.00
2012,08,02,02,53,14.00
2012,08,02,02,54,14.00
2012,08,02,02,55,14.00
2012,08,02,02,56,14.00
2012,08,02,02,57,13.90
2012,08,02,02,58,13.90
2012,08,02,02,59,13.90
2012,08,02,03,00,13.90
2012,08,02,03,01,13.90
2012,08,02,03,02,13.90
2012,08,02,03,03,13.90
2012,08,02,03,04,13.90
2012,08,02,03,05,13.80
2012,08,02,03,06,13.80
2012,08,02,03,07,13.80
2012,08,02,03,08,13.80
2012,08,02,03,09,13.80
2012,08,02,03,10,13.80
2012,08,02,03,11,13.80
2012,08,02,03,12,13.80
2012,08,02,03,13,13.80
2012,08,02,03,14,13.80
2012,08,02,03,15,13.80
2012,08,02,03,16,13.80
2012,08,02,03,17,13.80
2012,08,02,03,18,13.80
2012,08,02,03,19,13.80
2012,08,02,03,20,13.80
2012,08,02,03,21,13.80
2012,08,02,03,22,13.80
2012,08,02,03,23,13.80
2012,08,02,03,24,13.80
2012,08,02,03,25,13.80
2012,08,02,03,26,13.80
2012,08,02,03,27,13.80
2012,08,02,03,28,13.80
2012,08,02,03,29,13.80
2012,08,02,03,30,13.80
2012,08,02,03,31,13.80
2012,08,02,03,32,13.80
2012,08,02,03,33,13.80
2012,08,02,03,34,13.80
2012,08,02,03,35,13.80
2012,08,02,03,36,13.80
2012,08,02,03,37,13.80
2012,08,02,03,38,13.70
2012,08,02,03,39,13.70
2012,08,02,03,40,13.70
2012,08,02,03,41,13.70
2012,08,02,03,42,13.70
2012,08,02,03,43,13.70
2012,08,02,03,44,13.70
2012,08,02,03,45,13.70
2012,08,02,03,46,13.70
2012,08,02,03,47,13.70
2012,08,02,03,48,13.70
2012,08,02,03,49,13.70
2012,08,02,03,50,13.70
2012,08,02,03,51,13.70
2012,08,02,03,52,13.70
2012,08,02,03,53,13.70
2012,08,02,03,54,13.70
2012,08,02,03,55,13.70
2012,08,02,03,56,13.70
2012,08,02,03,57,13.70
2012,08,02,03,58,13.70
2012,08,02,03,59,13.70
2012,08,02,04,00,13.70
2012,08,02,04,01,13.70
2012,08,02,04,02,13.70
2012,08,02,04,03,13.70
2012,08,02,04,04,13.70
2012,08,02,04,05,13.70
2012,08,02,04,06,13.80
2012,08,02,04,07,13.80
2012,08,02,04,08,13.80
2012,08,02,04,09,13.80
2012,08,02,04,10,13.80
2012,08,02,04,11,13.80
2012,08,02,04,12,13.80
2012,08,02,04,13,13.80
2012,08,02,04,14,13.80
2012,08,02,04,15,13.80
2012,08,02,04,16,13.80
2012,08,02,04,17,13.80
2012,08,02,04,18,13.80
2012,08,02,04,19,13.80
2012,08,02,04,20,13.80
2012,08,02,04,21,13.80
2012,08,02,04,22,13.80
2012,08,02,04,23,13.80
2012,08,02,04,24,13.80
2012,08,02,04,25,13.80
2012,08,02,04,26,13.80
2012,08,02,04,27,13.80
2012,08,02,04,28,13.90
2012,08,02,04,29,13.90
2012,08,02,04,30,13.90
2012,08,02,04,31,13.90
2012,08,02,04,32,13.90
2012,08,02,04,33,13.90
2012,08,02,04,34,13.90
2012,08,02,04,35,13.80
2012,08,02,04,36,13.80
2012,08,02,04,37,13.80
2012,08,02,04,38,13.80
2012,08,02,04,39,13.80
2012,08,02,04,40,13.80
2012,08,02,04,41,13.80
2012,08,02,04,42,13.80
2012,08,02,04,43,13.80
2012,08,02,04,44,13.80
2012,08,02,04,45,13.80
2012,08,02,04,46,13.80
2012,08,02,04,47,13.80
2012,08,02,04,48,13.80
2012,08,02,04,49,13.80
2012,08,02,04,50,13.80
2012,08,02,04,51,13.70
2012,08,02,04,52,13.70
2012,08,02,04,53,13.70
2012,08,02,04,54,13.70
2012,08,02,04,55,13.70
2012,08,02,04,56,13.70
2012,08,02,04,57,13.70
2012,08,02,04,58,13.70
2012,08,02,04,59,13.70
2012,08,02,05,00,13.70
2012,08,02,05,01,13.70
2012,08,02,05,02,13.70
2012,08,02,05,03,13.70
2012,08,02,05,04,13.70
2012,08,02,05,05,13.70
2012,08,02,05,06,13.70
2012,08,02,05,07,13.70
2012,08,02,05,08,13.70
2012,08,02,05,09,13.70
2012,08,02,05,10,13.70
2012,08,02,05,11,13.70
2012,08,02,05,12,13.70
2012,08,02,05,13,13.70
2012,08,02,05,14,13.70
2012,08,02,05,15,13.70
2012,08,02,05,16,13.70
2012,08,02,05,17,13.70
2012,08,02,05,18,13.70
2012,08,02,05,19,13.70
2012,08,02,05,20,13.70
2012,08,02,05,21,13.70
2012,08,02,05,22,13.70
2012,08,02,05,23,13.70
2012,08,02,05,24,13.70
2012,08,02,05,25,13.70
2012,08,02,05,26,13.70
2012,08,02,05,27,13.60
2012,08,02,05,28,13.60
2012,08,02,05,29,13.60
2012,08,02,05,30,13.60
2012,08,02,05,31,13.60
2012,08,02,05,32,13.60
2012,08,02,05,33,13.70
2012,08,02,05,34,13.70
2012,08,02,05,35,13.70
2012,08,02,05,36,13.70
2012,08,02,05,37,13.70
2012,08,02,05,38,13.70
2012,08,02,05,39,13.70
2012,08,02,05,40,13.70
2012,08,02,05,41,13.70
2012,08,02,05,42,13.70
2012,08,02,05,43,13.70
2012,08,02,05,44,13.70
2012,08,02,05,45,13.70
2012,08,02,05,46,13.70
2012,08,02,05,47,13.70
2012,08,02,05,48,13.70
2012,08,02,05,49,13.70
2012,08,02,05,50,13.70
2012,08,02,05,51,13.70
2012,08,02,05,52,13.70
2012,08,02,05,53,13.70
2012,08,02,05,54,13.70
2012,08,02,05,55,13.70
2012,08,02,05,56,13.70
2012,08,02,05,57,13.70
2012,08,02,05,58,13.70
2012,08,02,05,59,13.70
2012,08,02,06,00,13.70
2012,08,02,06,01,13.70
2012,08,02,06,02,13.70
2012,08,02,06,03,13.70
2012,08,02,06,04,13.70
2012,08,02,06,05,13.70
2012,08,02,06,06,13.70
2012,08,02,06,07,13.70
2012,08,02,06,08,13.70
2012,08,02,06,09,13.70
2012,08,02,06,10,13.70
2012,08,02,06,11,13.70
2012,08,02,06,12,13.70
2012,08,02,06,13,13.70
2012,08,02,06,14,13.70
2012,08,02,06,15,13.70
2012,08,02,06,16,13.70
2012,08,02,06,17,13.70
2012,08,02,06,18,13.70
2012,08,02,06,19,13.70
2012,08,02,06,20,13.70
2012,08,02,06,21,13.60
2012,08,02,06,22,13.60
2012,08,02,06,23,13.60
2012,08,02,06,24,13.60
2012,08,02,06,25,13.60
2012,08,02,06,26,13.70
2012,08,02,06,27,13.70
2012,08,02,06,28,13.70
2012,08,02,06,29,13.70
2012,08,02,06,30,13.70
2012,08,02,06,31,13.70
2012,08,02,06,32,13.70
2012,08,02,06,33,13.70
2012,08,02,06,34,13.70
2012,08,02,06,35,13.70
2012,08,02,06,36,13.70
2012,08,02,06,37,13.70
2012,08,02,06,38,13.80
2012,08,02,06,39,13.80
2012,08,02,06,40,13.80
2012,08,02,06,41,13.80
2012,08,02,06,42,13.80
2012,08,02,06,43,13.80
2012,08,02,06,44,13.80
2012,08,02,06,45,13.90
2012,08,02,06,46,13.90
2012,08,02,06,47,13.90
2012,08,02,06,48,13.90
2012,08,02,06,49,13.90
2012,08,02,06,50,13.90
2012,08,02,06,51,13.90
2012,08,02,06,52,13.90
2012,08,02,06,53,14.00
2012,08,02,06,54,14.00
2012,08,02,06,55,14.00
2012,08,02,06,56,14.00
2012,08,02,06,57,14.10
2012,08,02,06,58,14.10
2012,08,02,06,59,14.10
2012,08,02,07,00,14.10
2012,08,02,07,01,14.10
2012,08,02,07,02,14.10
2012,08,02,07,03,14.10
2012,08,02,07,04,14.10
2012,08,02,07,05,14.10
2012,08,02,07,06,14.20
2012,08,02,07,07,14.20
2012,08,02,07,08,14.20
2012,08,02,07,09,14.20
2012,08,02,07,10,14.20
2012,08,02,07,11,14.30
2012,08,02,07,12,14.30
2012,08,02,07,13,14.30
2012,08,02,07,14,14.30
2012,08,02,07,15,14.40
2012,08,02,07,16,14.40
2012,08,02,07,17,14.50
2012,08,02,07,18,14.50
2012,08,02,07,19,14.60
2012,08,02,07,20,14.60
2012,08,02,07,21,14.60
2012,08,02,07,22,14.70
2012,08,02,07,23,14.70
2012,08,02,07,24,14.80
2012,08,02,07,25,14.80
2012,08,02,07,26,14.90
2012,08,02,07,27,15.00
2012,08,02,07,28,15.00
2012,08,02,07,29,15.00
2012,08,02,07,30,15.00
2012,08,02,07,31,15.00
2012,08,02,07,32,15.10
2012,08,02,07,33,15.20
2012,08,02,07,34,15.20
2012,08,02,07,35,15.30
2012,08,02,07,36,15.30
2012,08,02,07,37,15.30
2012,08,02,07,38,15.40
2012,08,02,07,39,15.40
2012,08,02,07,40,15.40
2012,08,02,07,41,15.40
2012,08,02,07,42,15.40
2012,08,02,07,43,15.40
2012,08,02,07,44,15.40
2012,08,02,07,45,15.40
2012,08,02,07,46,15.40
2012,08,02,07,47,15.40
2012,08,02,07,48,15.40
2012,08,02,07,49,15.40
2012,08,02,07,50,15.30
2012,08,02,07,51,15.30
2012,08,02,07,52,15.40
2012,08,02,07,53,15.40
2012,08,02,07,54,15.40
2012,08,02,07,55,15.40
2012,08,02,07,56,15.40
2012,08,02,07,57,15.50
2012,08,02,07,58,15.50
2012,08,02,07,59,15.60
2012,08,02,08,00,15.60
2012,08,02,08,01,15.70
2012,08,02,08,02,15.70
2012,08,02,08,03,15.80
2012,08,02,08,04,15.80
2012,08,02,08,05,15.80
2012,08,02,08,06,15.80
2012,08,02,08,07,15.90
2012,08,02,08,08,15.90
2012,08,02,08,09,15.90
2012,08,02,08,10,15.90
2012,08,02,08,11,15.90
2012,08,02,08,12,15.90
2012,08,02,08,13,16.00
2012,08,02,08,14,16.00
2012,08,02,08,15,16.10
2012,08,02,08,16,16.10
2012,08,02,08,17,16.10
2012,08,02,08,18,16.20
2012,08,02,08,19,16.20
2012,08,02,08,20,16.20
2012,08,02,08,21,16.30
2012,08,02,08,22,16.30
2012,08,02,08,23,16.30
2012,08,02,08,24,16.40
2012,08,02,08,25,16.50
2012,08,02,08,26,16.50
2012,08,02,08,27,16.50
2012,08,02,08,28,16.60
2012,08,02,08,29,16.60
2012,08,02,08,30,16.70
2012,08,02,08,31,16.70
2012,08,02,08,32,16.70
2012,08,02,08,33,16.70
2012,08,02,08,34,16.70
2012,08,02,08,35,16.80
2012,08,02,08,36,16.80
2012,08,02,08,37,16.90
2012,08,02,08,38,16.90
2012,08,02,08,39,17.00
2012,08,02,08,40,17.00
2012,08,02,08,41,17.10
2012,08,02,08,42,17.10
2012,08,02,08,43,17.10
2012,08,02,08,44,17.20
2012,08,02,08,45,17.20
2012,08,02,08,46,17.30
2012,08,02,08,47,17.30
2012,08,02,08,48,17.30
2012,08,02,08,49,17.30
2012,08,02,08,50,17.30
2012,08,02,08,51,17.30
2012,08,02,08,52,17.30
2012,08,02,08,53,17.30
2012,08,02,08,54,17.30
2012,08,02,08,55,17.30
2012,08,02,08,56,17.30
2012,08,02,08,57,17.30
2012,08,02,08,58,17.40
2012,08,02,08,59,17.40
2012,08,02,09,00,17.40
2012,08,02,09,01,17.40
2012,08,02,09,02,17.40
2012,08,02,09,03,17.40
2012,08,02,09,04,17.40
2012,08,02,09,05,17.40
2012,08,02,09,06,17.40
2012,08,02,09,07,17.40
2012,08,02,09,08,17.30
2012,08,02,09,09,17.30
2012,08,02,09,10,17.30
2012,08,02,09,11,17.30
2012,08,02,09,12,17.30
2012,08,02,09,13,17.30
2012,08,02,09,14,17.30
2012,08,02,09,15,17.40
2012,08,02,09,16,17.40
2012,08,02,09,17,17.40
2012,08,02,09,18,17.40
2012,08,02,09,19,17.40
2012,08,02,09,20,17.30
2012,08,02,09,21,17.30
2012,08,02,09,22,17.30
2012,08,02,09,23,17.30
2012,08,02,09,24,17.30
2012,08,02,09,25,17.30
2012,08,02,09,26,17.30
2012,08,02,09,27,17.40
2012,08,02,09,28,17.40
2012,08,02,09,29,17.40
2012,08,02,09,30,17.40
2012,08,02,09,31,17.40
2012,08,02,09,32,17.40
2012,08,02,09,33,17.40
2012,08,02,09,34,17.40
2012,08,02,09,35,17.30
2012,08,02,09,36,17.30
2012,08,02,09,37,17.30
2012,08,02,09,38,17.30
2012,08,02,09,39,17.30
2012,08,02,09,40,17.40
2012,08,02,09,41,17.40
2012,08,02,09,42,17.40
2012,08,02,09,43,17.40
2012,08,02,09,44,17.40
2012,08,02,09,45,17.50
2012,08,02,09,46,17.60
2012,08,02,09,47,17.60
2012,08,02,09,48,17.60
2012,08,02,09,49,17.70
2012,08,02,09,50,17.70
2012,08,02,09,51,17.80
2012,08,02,09,52,17.80
2012,08,02,09,53,17.90
2012,08,02,09,54,17.90
2012,08,02,09,55,18.00
2012,08,02,09,56,18.00
2012,08,02,09,57,18.10
2012,08,02,09,58,18.10
2012,08,02,09,59,18.10
2012,08,02,10,00,18.10
2012,08,02,10,01,18.20
2012,08,02,10,02,18.20
2012,08,02,10,03,18.20
2012,08,02,10,04,18.20
2012,08,02,10,05,18.30
2012,08,02,10,06,18.30
2012,08,02,10,07,18.30
2012,08,02,10,08,18.30
2012,08,02,10,09,18.30
2012,08,02,10,10,18.30
2012,08,02,10,11,18.30
2012,08,02,10,12,18.30
2012,08,02,10,13,18.40
2012,08,02,10,14,18.40
2012,08,02,10,15,18.50
2012,08,02,10,16,18.50
2012,08,02,10,17,18.60
2012,08,02,10,18,18.70
2012,08,02,10,19,18.90
2012,08,02,10,20,19.00
2012,08,02,10,21,19.10
2012,08,02,10,22,19.20
2012,08,02,10,23,19.40
2012,08,02,10,24,19.50
2012,08,02,10,25,19.60
2012,08,02,10,26,19.70
2012,08,02,10,27,19.70
2012,08,02,10,28,19.70
2012,08,02,10,29,19.60
2012,08,02,10,30,19.60
2012,08,02,10,31,19.60
2012,08,02,10,32,19.60
2012,08,02,10,33,19.60
2012,08,02,10,34,19.60
2012,08,02,10,35,19.70
2012,08,02,10,36,19.80
2012,08,02,10,37,19.90
2012,08,02,10,38,19.90
2012,08,02,10,39,19.90
2012,08,02,10,40,20.00
2012,08,02,10,41,20.00
2012,08,02,10,42,20.10
2012,08,02,10,43,20.10
2012,08,02,10,44,20.30
2012,08,02,10,45,20.40
2012,08,02,10,46,20.60
2012,08,02,10,47,20.70
2012,08,02,10,48,20.80
2012,08,02,10,49,21.00
2012,08,02,10,50,21.00
2012,08,02,10,51,21.20
2012,08,02,10,52,21.30
2012,08,02,10,53,21.30
2012,08,02,10,54,21.30
2012,08,02,10,55,21.30
2012,08,02,10,56,21.20
2012,08,02,10,57,21.10
2012,08,02,10,58,21.00
2012,08,02,10,59,20.90
2012,08,02,11,00,20.90
2012,08,02,11,01,20.90
2012,08,02,11,02,20.90
2012,08,02,11,03,20.90
2012,08,02,11,04,20.80
2012,08,02,11,05,20.70
2012,08,02,11,06,20.70
2012,08,02,11,07,20.80
2012,08,02,11,08,20.80
2012,08,02,11,09,20.80
2012,08,02,11,10,20.80
2012,08,02,11,11,20.70
2012,08,02,11,12,20.70
2012,08,02,11,13,20.70
2012,08,02,11,14,20.70
2012,08,02,11,15,20.70
2012,08,02,11,16,20.80
2012,08,02,11,17,20.80
2012,08,02,11,18,20.80
2012,08,02,11,19,20.80
2012,08,02,11,20,20.80
2012,08,02,11,21,20.80
2012,08,02,11,22,20.80
2012,08,02,11,23,20.90
2012,08,02,11,24,20.90
2012,08,02,11,25,21.00
2012,08,02,11,26,21.00
2012,08,02,11,27,21.10
2012,08,02,11,28,21.20
2012,08,02,11,29,21.20
2012,08,02,11,30,21.30
2012,08,02,11,31,21.30
2012,08,02,11,32,21.30
2012,08,02,11,33,21.30
2012,08,02,11,34,21.40
2012,08,02,11,35,21.40
2012,08,02,11,36,21.40
2012,08,02,11,37,21.40
2012,08,02,11,38,21.40
2012,08,02,11,39,21.50
2012,08,02,11,40,21.60
2012,08,02,11,41,21.70
2012,08,02,11,42,21.70
2012,08,02,11,43,21.80
2012,08,02,11,44,21.80
2012,08,02,11,45,21.90
2012,08,02,11,46,22.00
2012,08,02,11,47,22.10
2012,08,02,11,48,22.10
2012,08,02,11,49,22.10
2012,08,02,11,50,22.10
2012,08,02,11,51,22.00
2012,08,02,11,52,22.00
2012,08,02,11,53,22.00
2012,08,02,11,54,22.10
2012,08,02,11,55,22.10
2012,08,02,11,56,22.10
2012,08,02,11,57,22.10
2012,08,02,11,58,22.10
2012,08,02,11,59,22.10
2012,08,02,12,00,22.00
2012,08,02,12,01,22.00
2012,08,02,12,02,22.00
2012,08,02,12,03,22.00
2012,08,02,12,04,21.80
2012,08,02,12,05,21.80
2012,08,02,12,06,21.80
2012,08,02,12,07,21.80
2012,08,02,12,08,21.80
2012,08,02,12,09,21.70
2012,08,02,12,10,21.70
2012,08,02,12,11,21.60
2012,08,02,12,12,21.60
2012,08,02,12,13,21.70
2012,08,02,12,14,21.80
2012,08,02,12,15,21.80
2012,08,02,12,16,21.80
2012,08,02,12,17,21.80
2012,08,02,12,18,21.80
2012,08,02,12,19,21.80
2012,08,02,12,20,21.80
2012,08,02,12,21,21.80
2012,08,02,12,22,21.80
2012,08,02,12,23,21.80
2012,08,02,12,24,21.80
2012,08,02,12,25,21.80
2012,08,02,12,26,21.80
2012,08,02,12,27,21.90
2012,08,02,12,28,21.90
2012,08,02,12,29,21.90
2012,08,02,12,30,22.00
2012,08,02,12,31,22.10
2012,08,02,12,32,22.20
2012,08,02,12,33,22.30
2012,08,02,12,34,22.30
2012,08,02,12,35,22.30
2012,08,02,12,36,22.40
2012,08,02,12,37,22.40
2012,08,02,12,38,22.40
2012,08,02,12,39,22.40
2012,08,02,12,40,22.40
2012,08,02,12,41,22.60
2012,08,02,12,42,22.70
2012,08,02,12,43,22.70
2012,08,02,12,44,22.80
2012,08,02,12,45,22.70
2012,08,02,12,46,22.50
2012,08,02,12,47,22.40
2012,08,02,12,48,22.30
2012,08,02,12,49,22.30
2012,08,02,12,50,22.20
2012,08,02,12,51,22.10
2012,08,02,12,52,22.00
2012,08,02,12,53,21.90
2012,08,02,12,54,21.70
2012,08,02,12,55,21.70
2012,08,02,12,56,21.70
2012,08,02,12,57,21.80
2012,08,02,12,58,21.80
2012,08,02,12,59,21.90
2012,08,02,13,00,22.00
2012,08,02,13,01,22.10
2012,08,02,13,02,22.10
2012,08,02,13,03,22.10
2012,08,02,13,04,22.10
2012,08,02,13,05,22.00
2012,08,02,13,06,22.00
2012,08,02,13,07,21.90
2012,08,02,13,08,22.00
2012,08,02,13,09,22.00
2012,08,02,13,10,22.10
2012,08,02,13,11,22.10
2012,08,02,13,12,22.00
2012,08,02,13,13,22.00
2012,08,02,13,14,22.00
2012,08,02,13,15,22.10
2012,08,02,13,16,22.10
2012,08,02,13,17,22.20
2012,08,02,13,18,22.20
2012,08,02,13,19,22.20
2012,08,02,13,20,22.00
2012,08,02,13,21,21.90
2012,08,02,13,22,21.80
2012,08,02,13,23,21.80
2012,08,02,13,24,21.80
2012,08,02,13,25,21.80
2012,08,02,13,26,21.80
2012,08,02,13,27,21.70
2012,08,02,13,28,21.70
2012,08,02,13,29,21.60
2012,08,02,13,30,21.70
2012,08,02,13,31,21.70
2012,08,02,13,32,21.60
2012,08,02,13,33,21.50
2012,08,02,13,34,21.40
2012,08,02,13,35,21.50
2012,08,02,13,36,21.50
2012,08,02,13,37,21.60
2012,08,02,13,38,21.70
2012,08,02,13,39,21.70
2012,08,02,13,40,21.70
2012,08,02,13,41,21.70
2012,08,02,13,42,21.70
2012,08,02,13,43,21.60
2012,08,02,13,44,21.40
2012,08,02,13,45,21.40
2012,08,02,13,46,21.50
2012,08,02,13,47,21.60
2012,08,02,13,48,21.70
2012,08,02,13,49,21.70
2012,08,02,13,50,21.70
2012,08,02,13,51,21.70
2012,08,02,13,52,21.80
2012,08,02,13,53,21.80
2012,08,02,13,54,21.90
2012,08,02,13,55,22.00
2012,08,02,13,56,22.10
2012,08,02,13,57,22.10
2012,08,02,13,58,22.10
2012,08,02,13,59,22.00
2012,08,02,14,00,22.00
2012,08,02,14,01,22.10
2012,08,02,14,02,22.10
2012,08,02,14,03,22.10
2012,08,02,14,04,22.10
2012,08,02,14,05,22.10
2012,08,02,14,06,22.20
2012,08,02,14,07,22.20
2012,08,02,14,08,22.20
2012,08,02,14,09,22.20
2012,08,02,14,10,22.10
2012,08,02,14,11,22.00
2012,08,02,14,12,22.10
2012,08,02,14,13,22.10
2012,08,02,14,14,22.10
2012,08,02,14,15,22.10
2012,08,02,14,16,22.10
2012,08,02,14,17,22.10
2012,08,02,14,18,22.20
2012,08,02,14,19,22.20
2012,08,02,14,20,22.20
2012,08,02,14,21,22.30
2012,08,02,14,22,22.30
2012,08,02,14,23,22.30
2012,08,02,14,24,22.20
2012,08,02,14,25,22.20
2012,08,02,14,26,22.20
2012,08,02,14,27,22.30
2012,08,02,14,28,22.40
2012,08,02,14,29,22.30
2012,08,02,14,30,22.20
2012,08,02,14,31,22.10
2012,08,02,14,32,22.10
2012,08,02,14,33,22.10
2012,08,02,14,34,22.20
2012,08,02,14,35,22.20
2012,08,02,14,36,22.10
2012,08,02,14,37,22.10
2012,08,02,14,38,22.10
2012,08,02,14,39,22.30
2012,08,02,14,40,22.30
2012,08,02,14,41,22.40
2012,08,02,14,42,22.50
2012,08,02,14,43,22.60
2012,08,02,14,44,22.50
2012,08,02,14,45,22.50
2012,08,02,14,46,22.50
2012,08,02,14,47,22.40
2012,08,02,14,48,22.30
2012,08,02,14,49,22.30
2012,08,02,14,50,22.20
2012,08,02,14,51,22.20
2012,08,02,14,52,22.10
2012,08,02,14,53,22.10
2012,08,02,14,54,22.10
2012,08,02,14,55,22.10
2012,08,02,14,56,22.00
2012,08,02,14,57,22.00
2012,08,02,14,58,21.90
2012,08,02,14,59,21.90
2012,08,02,15,00,21.90
2012,08,02,15,01,22.00
2012,08,02,15,02,22.10
2012,08,02,15,03,22.10
2012,08,02,15,04,22.10
2012,08,02,15,05,22.20
2012,08,02,15,06,22.20
2012,08,02,15,07,22.30
2012,08,02,15,08,22.20
2012,08,02,15,09,22.20
2012,08,02,15,10,22.10
2012,08,02,15,11,22.00
2012,08,02,15,12,22.10
2012,08,02,15,13,22.10
2012,08,02,15,14,22.20
2012,08,02,15,15,22.20
2012,08,02,15,16,22.10
2012,08,02,15,17,22.10
2012,08,02,15,18,22.00
2012,08,02,15,19,21.80
2012,08,02,15,20,21.80
2012,08,02,15,21,21.70
2012,08,02,15,22,21.70
2012,08,02,15,23,21.80
2012,08,02,15,24,21.90
2012,08,02,15,25,22.10
2012,08,02,15,26,22.20
2012,08,02,15,27,22.30
2012,08,02,15,28,22.20
2012,08,02,15,29,22.10
2012,08,02,15,30,22.00
2012,08,02,15,31,22.00
2012,08,02,15,32,22.10
2012,08,02,15,33,22.10
2012,08,02,15,34,22.20
2012,08,02,15,35,22.20
2012,08,02,15,36,22.30
2012,08,02,15,37,22.30
2012,08,02,15,38,22.20
2012,08,02,15,39,22.10
2012,08,02,15,40,22.00
2012,08,02,15,41,21.90
2012,08,02,15,42,21.90
2012,08,02,15,43,22.10
2012,08,02,15,44,22.20
2012,08,02,15,45,22.20
2012,08,02,15,46,22.20
2012,08,02,15,47,22.20
2012,08,02,15,48,22.30
2012,08,02,15,49,22.30
2012,08,02,15,50,22.20
2012,08,02,15,51,22.10
2012,08,02,15,52,22.10
2012,08,02,15,53,22.00
2012,08,02,15,54,21.90
2012,08,02,15,55,21.90
2012,08,02,15,56,22.00
2012,08,02,15,57,22.20
2012,08,02,15,58,22.20
2012,08,02,15,59,22.10
2012,08,02,16,00,22.00
2012,08,02,16,01,21.90
2012,08,02,16,02,21.80
2012,08,02,16,03,21.80
2012,08,02,16,04,21.80
2012,08,02,16,05,21.90
2012,08,02,16,06,22.00
2012,08,02,16,07,21.90
2012,08,02,16,08,21.90
2012,08,02,16,09,22.00
2012,08,02,16,10,22.00
2012,08,02,16,11,22.00
2012,08,02,16,12,21.90
2012,08,02,16,13,21.90
2012,08,02,16,14,21.90
2012,08,02,16,15,21.90
2012,08,02,16,16,21.90
2012,08,02,16,17,21.90
2012,08,02,16,18,22.00
2012,08,02,16,19,22.10
2012,08,02,16,20,22.20
2012,08,02,16,21,22.30
2012,08,02,16,22,22.30
2012,08,02,16,23,22.20
2012,08,02,16,24,22.10
2012,08,02,16,25,22.10
2012,08,02,16,26,22.10
2012,08,02,16,27,22.00
2012,08,02,16,28,22.00
2012,08,02,16,29,22.00
2012,08,02,16,30,21.90
2012,08,02,16,31,21.90
2012,08,02,16,32,21.90
2012,08,02,16,33,22.00
2012,08,02,16,34,22.10
2012,08,02,16,35,22.20
2012,08,02,16,36,22.20
2012,08,02,16,37,22.30
2012,08,02,16,38,22.30
2012,08,02,16,39,22.30
2012,08,02,16,40,22.20
2012,08,02,16,41,22.10
2012,08,02,16,42,22.10
2012,08,02,16,43,22.10
2012,08,02,16,44,22.10
2012,08,02,16,45,22.10
2012,08,02,16,46,22.10
2012,08,02,16,47,22.10
2012,08,02,16,48,22.20
2012,08,02,16,49,22.10
2012,08,02,16,50,22.10
2012,08,02,16,51,22.00
2012,08,02,16,52,22.00
2012,08,02,16,53,22.00
2012,08,02,16,54,22.10
2012,08,02,16,55,22.20
2012,08,02,16,56,22.30
2012,08,02,16,57,22.40
2012,08,02,16,58,22.40
2012,08,02,16,59,22.40
2012,08,02,17,00,22.40
2012,08,02,17,01,22.40
2012,08,02,17,02,22.50
2012,08,02,17,03,22.60
2012,08,02,17,04,22.60
2012,08,02,17,05,22.70
2012,08,02,17,06,22.70
2012,08,02,17,07,22.80
2012,08,02,17,08,22.70
2012,08,02,17,09,22.70
2012,08,02,17,10,22.50
2012,08,02,17,11,22.50
2012,08,02,17,12,22.40
2012,08,02,17,13,22.40
2012,08,02,17,14,22.40
2012,08,02,17,15,22.30
2012,08,02,17,16,22.20
2012,08,02,17,17,22.20
2012,08,02,17,18,22.10
2012,08,02,17,19,22.00